Volver al catálogo

STARLINK-36444

ActivoComunicacionesVLEO
NORAD 67521·PAYLOAD·🇺🇸 United States

Lanzado Jan 18, 2026 desde Cape Canaveral Space Force Station

Loading…

Próximos Pases (próximas 24 horas)

TLE

ActualizadoSource: CelesTrak SupGP

Época: Sep 15, 2026, 04:13 UTC

1 67521C 26012AE  26258.17618056  .00040038  00000+0  14498-2 0  2589
2 67521  43.0034 324.0896 0001565 264.5558  91.2443 15.27566317    18

Sigue STARLINK-36444 en tiempo real con AllMySat

Download on the App Store